Location: Archamps
(46.1365°N, 6.1329°E)
Time: 11:34:33
(UTC+00:00)

CZ-4 R/B - Visible Passes

Search period start: 17 September 2024 00:00
Search period end: 27 September 2024 00:00
Orbit: 512 x 565 km, 97.6° (Epoch: 16 September)

Date Brightness Start Highest point End Pass type
(mag) Time Alt. Az. Time Alt. Az. Time Alt. Az.
17 Sep 1.6 18:34:43 10° SE 18:38:23 45° ENE 18:42:09 10° N visible
17 Sep 4.1 20:10:50 10° SW 20:13:10 15° W 20:15:32 10° NW visible
18 Sep 1.9 18:27:06 10° SE 18:30:40 37° ENE 18:34:18 10° N visible
18 Sep 3.9 20:02:33 10° SW 20:05:19 19° W 20:08:07 10° NW visible
19 Sep 2.1 18:19:29 10° SE 18:22:55 31° ENE 18:26:25 10° N visible
19 Sep 3.6 19:54:22 10° SSW 19:57:27 22° W 20:00:35 10° NW visible
20 Sep 2.4 18:11:55 10° SE 18:15:10 26° ENE 18:18:28 10° N visible
20 Sep 3.3 19:46:16 10° SSW 19:49:36 27° W 19:53:00 10° NW visible
21 Sep 2.6 18:04:24 10° ESE 18:07:24 22° ENE 18:10:28 10° NNE visible
21 Sep 2.9 19:38:15 10° SSW 19:41:44 33° W 19:45:20 10° NNW visible
22 Sep 2.8 17:56:55 10° ESE 17:59:39 18° ENE 18:02:25 10° NNE visible
22 Sep 2.5 19:30:30 12° SSW 19:33:50 41° W 19:37:36 10° NNW visible
23 Sep 2.1 19:22:43 14° S 19:25:57 50° W 19:29:50 10° NNW visible
24 Sep 1.7 19:14:56 15° S 19:18:03 63° WSW 19:22:01 10° NNW visible
25 Sep 1.4 19:07:09 16° S 19:10:09 78° WSW 19:14:10 10° NNW visible
26 Sep 1.2 18:59:20 17° SSE 19:02:15 85° ENE 19:06:16 10° NNW visible
